Location: Curupao
(10.4996°N, 66.6442°W)
Time: 10:52:59
(UTC+00:00)

Feng Yun 1-1 Rocket - Pass Details

Date: 23 May 2024
Orbit: 829 x 933 km, 99.1° (Epoch: 24 June)

Event Time Altitude Azimuth Distance (km) Brightness Sun altitude
Exits shadow 00:30:39 58° 102° (ESE) 1,062 4.3 -24.9°
Maximum altitude 00:31:11 61° 76° (ENE) 1,039 4.4 -25.0°
Drops below altitude 10° 00:36:59 10° 357° (N) 2,629 7.1 -26.3°
Sets 00:39:27 0° 354° (N) 3,576 7.9 -26.8°
